星链-4154 (STARLINK-4154 )

导读 | 星芒AI

STARLINK-4154 是 SpaceX Starlink 项目中的一颗低轨通信卫星,属于第 17 批次发射的 Starlink 卫星群。该卫星于 2021 年 12 月 3 日由猎鹰 9 号火箭送入近地轨道,主要任务是为全球用户提供高速互联网服务。它采用先进的推进系统和激光通信技术,支持卫星间高速数据传输,提高网络稳定性和覆盖范围。STARLINK-4154 运行在约 550 公里的高度,设计寿命为 5 至 7 年,是 SpaceX 打造全球宽带网络的重要组成部分。

基本信息
目录编号:
53133
目录名称:
STARLINK-4154
国际标识:
2022-083B
轨道中心:
EARTH
卫星名称:
星链-4154
卫星全名:
星链-4154 (STARLINK-4154 )
卫星状态:
已陨落 最后检测时间 2024-12-29
发射日期:
2022-07-17 UTC
国别 :
美国 (US)
星等 :
--
轨道信息
数据来源 国际轨道数据
星历时间: 2024-12-30T01:30:24+0800
轨道信息已过期310天
半长轴: 6533.6km
偏心率: 0.0004892
轨道倾角: 53.205°
近地点辐角 296.489°
升交点赤经 306.241°
平近点角 156.504°
近地点: 152.268km
远地点: 158.662km
周期: 87.597分钟
每日圈数: 16.438947
详细信息
固有亮度:
5
最大亮度:
2.5
卫星平台:
Starlink v1.5
覆盖范围:
全球
运营商:
太空探索技术公司
运营商所在国:
美国
制造商(研发单位):
太空探索技术公司
制造商所在国:
美国
使用方式:
暂无
卫星简介
星链(Starlink)计划是由太空探索技术公司(SpaceX)提出的一个巨型低轨卫星互联网星座项目,计划在2019年至2024年间在太空搭建由约1.2万颗卫星组成的“星链”网络,其中1584颗将部署在地球上空550千米处的近地轨道,并从2020年开始工作。该卫星仍在工作。